Date,TemperatureHighF,TemperatureAvgF,TemperatureLowF,DewpointHighF,DewpointAvgF,DewpointLowF,HumidityHigh,HumidityAvg,HumidityLow,PressureMaxIn,PressureMinIn,WindSpeedMaxMPH,WindSpeedAvgMPH,GustSpeedMaxMPH,PrecipitationSumIn
2013-10-1,61,52,49,54,48,46,94,86,74,29.99,29.78,23,10,28,0.09
2013-10-2,52,49,45,51,46,-100,97,92,87,30.09,29.96,18,-7,23,0.07
2013-10-3,56,47,41,51,45,-100,99,93,82,30.37,30.10,8,-8,9,0.03
2013-10-4,59,48,39,53,45,-100,99,90,74,30.40,30.26,7,-9,9,0.01
2013-10-5,70,56,49,54,50,-100,96,82,53,30.27,30.05,6,-9,10,0.01
2013-10-6,71,56,45,59,48,-100,98,79,54,30.04,29.70,30,8,40,0.00
2013-10-7,60,54,52,53,49,-100,97,86,70,29.86,29.72,28,5,38,0.02
2013-10-8,63,52,45,49,45,-100,95,81,54,30.00,29.84,10,-7,15,0.01
2013-10-9,55,47,38,49,42,-100,97,86,69,30.05,29.86,9,3,12,0.03
2013-10-10,56,50,43,51,45,-100,96,87,78,29.98,29.84,14,-5,16,0.02
2013-10-11,55,46,38,50,43,-100,98,92,80,30.06,29.98,4,1,5,0.01
2013-10-12,62,51,43,53,45,-100,98,86,65,30.12,29.99,10,-8,14,0.02
2013-10-13,62,47,38,50,44,38,98,89,60,30.28,30.12,6,2,11,0.02
2013-10-14,62,48,36,51,42,-100,98,86,65,30.35,30.28,7,-9,11,0.02
2013-10-15,59,47,40,52,44,-100,98,93,76,30.31,30.10,6,-9,10,0.02
2013-10-16,63,50,45,54,47,-100,98,92,70,30.12,30.06,7,2,9,0.07
2013-10-17,61,50,44,53,46,-100,99,91,69,30.20,30.11,9,-8,13,0.04
2013-10-18,60,47,42,53,44,-100,99,93,73,30.17,30.07,8,2,10,0.10
2013-10-19,51,46,41,50,44,-100,99,96,94,30.12,30.07,5,-9,7,0.06
2013-10-20,52,48,47,49,46,-100,98,94,87,30.13,30.07,6,-9,7,0.04
2013-10-21,54,48,46,51,48,46,98,96,88,30.10,30.02,5,2,7,0.02
2013-10-22,61,47,42,53,45,-100,99,94,75,30.05,29.95,7,1,8,0.02
2013-10-23,62,46,37,54,43,-100,99,92,75,29.97,29.89,5,-9,6,0.01
2013-10-24,48,44,39,48,42,-100,100,97,97,30.02,29.94,15,-8,19,0.00
2013-10-25,52,48,46,50,47,-100,100,96,90,30.24,30.02,16,4,18,0.01
2013-10-26,58,50,45,49,46,-100,97,87,70,30.26,30.11,8,-9,11,0.00
2013-10-27,64,54,48,52,44,-100,98,75,47,30.09,29.84,21,-4,29,0.00
2013-10-28,54,50,49,35,28,-100,48,45,40,29.92,29.89,21,-14,33,0.00
2013-10-29,52,44,34,44,35,-100,89,76,49,29.94,29.86,11,-9,13,0.01
2013-10-30,52,45,36,48,40,-100,100,87,76,30.03,29.93,22,5,33,0.02
2013-10-31,51,49,48,50,46,-100,100,92,82,30.16,29.97,21,-2,29,0.02